Lid_Strength_Index
16 15 15 14 14 14 14 14 14 16 15 13 17 16 15 15 14 13 13 11 8 6 5 6 6 7 7 6 6 5 5 5 5 5 6 6 6 6
15 15 15 15 14 13 14 14 15 15 16 15 13 16 15 15 14 14 13 11 10 7 7 6 7 7 7 7 6 6 6 6 5 6 6 6 7 7
15 16 15 14 14 14 14 14 13 14 16 15 14 15 16 16 15 14 14 13 13 9 8 7 7 7 7 7 7 7 7 6 6 6 6 6 7 7
15 15 15 14 15 14 14 14 14 13 14 16 14 14 16 16 15 15 14 14 14 12 9 8 7 8 8 8 8 7 7 7 7 7 6 7 7 7
15 15 15 15 15 14 14 14 13 12 13 14 14 13 13 15 16 15 15 14 14 12 10 9 8 8 8 8 8 8 8 8 7 7 7 7 7 7
15 15 15 15 15 14 14 14 13 13 13 13 14 14 13 13 14 14 15 15 15 15 13 11 10 9 8 8 8 9 9 9 8 8 8 8 8 8
15 15 15 15 13 13 14 14 14 14 14 14 14 14 14 16 14 13 13 13 14 14 15 15 13 12 11 9 10 10 9 9 9 9 9 8 8 9
16 15 15 15 14 13 13 12 13 14 14 13 13 14 13 13 13 12 12 13 15 14 14 15 14 14 13 12 10 9 9 9 9 9 9 10 9 9
16 16 16 15 16 16 14 13 13 13 12 12 12 12 12 11 11 13 12 12 12 13 13 15 14 15 13 13 10 9 9 9 9 9 9 10 10 10
17 17 17 17 16 16 16 16 15 15 14 13 13 12 11 10 9 10 11 11 11 11 11 15 14 15 14 13 11 10 9 9 9 9 9 10 10 10
17 17 17 17 15 14 15 16 16 15 12 11 11 10 10 9 8 9 10 11 12 12 13 12 13 14 15 14 14 11 10 9 9 9 10 10 10 10
16 16 14 15 13 12 14 15 17 16 15 15 14 12 11 11 9 8 9 10 11 12 11 13 12 15 17 15 14 14 12 10 9 9 9 10 10 11
17 17 15 13 13 12 12 14 15 14 14 14 15 15 13 12 11 9 9 9 10 11 12 12 12 13 14 18 16 15 14 12 11 10 9 9 9 11
16 16 16 13 12 12 12 11 11 11 13 14 16 16 15 13 11 10 8 8 8 8 8 10 14 12 13 14 17 16 15 13 12 12 11 10 9 9
14 13 11 11 10 11 11 11 13 15 16 18 18 18 16 14 12 10 9 7 8 7 7 9 10 11 12 13 14 16 16 15 13 12 12 12 12 11
13 13 12 11 10 11 13 12 13 13 14 16 17 16 15 15 14 12 10 9 9 8 7 7 9 9 12 12 12 15 15 16 14 13 13 13 12 12
12 14 16 16 17 16 15 15 15 15 17 17 17 17 16 16 15 13 10 9 10 10 9 8 8 8 9 11 12 12 14 14 14 14 14 14 13 13
16 20 21 19 19 18 18 17 15 16 16 16 16 16 16 16 14 12 9 9 10 10 10 11 10 11 14 14 10 13 13 13 14 14 14 15 16 14
22 22 21 20 19 19 18 17 17 15 15 16 16 15 15 14 13 11 10 9 9 10 9 12 11 12 13 15 16 11 14 13 14 15 15 15 17 17
23 23 22 21 20 19 18 16 14 15 16 16 16 15 14 13 10 11 9 9 9 10 11 13 12 11 12 14 17 17 11 13 14 14 15 16 15 15
23 22 22 21 21 20 18 16 15 14 15 15 14 14 13 12 10 10 10 11 10 11 13 15 12 10 10 12 16 17 14 11 12 14 15 16 18 19
22 22 21 21 21 20 19 17 16 14 13 13 12 11 11 10 10 9 10 11 11 12 13 13 11 12 12 14 16 18 17 14 12 11 12 14 17 20
21 21 20 21 20 19 18 17 16 15 14 13 12 10 9 9 9 10 10 10 10 12 13 14 13 12 12 13 16 16 16 16 16 16 16 14 14 14